GFSGL_700_temp_159.txt.gz
Temp
9 8 8 8 9 8 8 8 9 9 9 8 9 9 8 8 9 9 9 8 9 8 8 8 8 9 9 8 7 7 7 7 8 8 8 8 8 9 9 9 10 10 10
8 9 8 8 8 9 8 9 9 9 9 9 9 9 8 9 9 9 8 9 9 9 9 8 9 9 7 9 9 9 8 8 8 9 9 9 8 8 9 9 9 9 10
9 8 8 8 8 8 9 9 9 9 9 9 9 9 9 8 9 8 9 9 9 9 9 9 9 9 9 10 9 9 8 7 8 9 9 9 7 8 9 8 8 8 8
8 8 8 8 8 8 8 9 9 9 9 9 9 9 9 8 9 9 9 9 9 9 9 9 8 8 9 9 9 9 9 9 9 9 9 9 9 8 8 8 8 8 8
8 8 9 10 9 8 8 8 9 9 9 9 9 9 9 9 9 9 9 9 9 9 9 8 9 8 9 9 9 9 9 9 9 9 9 9 9 9 9 8 8 8 8
8 8 8 8 9 9 8 9 9 9 9 9 9 9 9 9 9 9 9 9 9 9 9 9 9 9 9 9 9 9 9 9 9 9 9 9 9 8 8 8 8 7 7
8 8 8 8 8 8 8 8 9 9 9 9 9 9 9 10 9 9 9 8 9 9 9 9 9 9 9 9 9 9 9 9 9 9 9 9 9 8 8 8 8 8 8
8 8 8 8 8 8 8 8 8 8 8 9 9 9 9 9 9 9 9 9 9 9 9 9 9 9 9 9 9 9 9 9 9 8 8 8 8 8 8 8 8 8 8
7 7 7 7 7 8 8 8 8 8 8 8 8 8 8 8 9 9 8 9 9 9 9 9 9 9 9 9 9 9 8 9 9 8 8 8 8 8 8 8 8 8 7
8 7 7 7 7 8 8 8 8 8 8 9 8 9 9 8 8 8 8 8 8 8 8 9 9 8 9 9 8 8 8 8 8 8 8 8 8 8 8 8 7 7 7
6 6 6 7 6 7 7 8 8 8 7 7 7 7 7 7 8 8 8 8 7 7 8 8 8 8 8 8 8 8 8 7 7 7 8 8 8 8 8 7 7 6 6
7 7 7 7 5 7 7 8 7 7 7 7 6 7 7 7 8 7 8 8 7 7 7 8 8 8 8 8 8 8 8 7 7 7 7 7 7 7 8 8 6 6 6
8 8 8 8 7 7 7 7 7 7 7 7 7 7 7 7 8 7 7 7 7 7 7 7 7 8 8 8 6 6 6 7 7 7 7 6 6 7 6 6 5 5 4
8 8 8 8 8 7 8 7 7 7 7 7 7 7 7 7 7 7 7 7 7 7 6 6 7 7 6 6 6 6 6 6 5 5 5 5 5 4 4 4 4 4 4
7 7 8 7 8 8 8 7 7 7 7 7 8 7 8 8 7 7 7 7 7 6 6 6 6 6 6 5 5 5 5 5 4 4 4 4 4 4 4 4 4 4 4
7 7 7 7 7 7 7 7 7 7 7 7 7 7 7 6 6 7 7 7 6 6 6 6 5 5 5 5 5 5 5 5 4 4 4 4 4 4 4 4 3 4 4
6 6 6 5 6 6 5 5 6 6 6 6 6 6 6 6 6 6 6 6 6 6 5 5 5 5 5 5 5 5 4 4 5 3 3 4 3 4 4 3 3 3 3
5 4 4 4 4 4 4 4 4 5 5 5 5 5 5 5 5 5 5 5 5 5 5 5 5 5 5 5 5 5 5 5 3 3 3 2 3 3 3 3 3 3 2
4 3 3 3 3 4 4 4 4 4 4 4 5 5 5 5 5 5 5 5 5 5 5 5 5 5 5 5 4 4 4 4 4 3 3 3 3 3 2 2 2 2 1
3 3 3 4 3 3 3 4 4 4 4 4 5 5 5 5 5 4 4 4 4 4 4 4 4 4 4 4 4 4 4 3 3 3 3 3 2 2 2 1 1 1 1
3 3 3 3 3 2 3 3 3 4 4 4 4 4 4 4 4 5 4 4 4 4 4 4 4 4 4 4 4 3 3 3 3 2 2 2 2 2 1 1 1 0 -0
2 4 3 1 1 3 2 3 3 3 3 4 5 4 4 4 4 4 4 4 4 4 4 3 3 3 3 3 3 3 2 2 2 2 2 1 1 1 1 0 0 -0 -1
2 3 3 2 2 4 4 2 2 2 1 2 2 4 4 4 4 4 4 3 3 3 3 3 3 3 3 2 2 2 2 2 1 1 1 0 0 -0 -0 -1 -1 -2 -3
2 2 1 2 4 4 2 3 2 3 3 1 1 1 2 3 3 3 3 3 3 2 2 2 2 2 2 1 1 1 1 1 1 0 0 -0 -1 -1 -1 -1 -3 -3 -3
2 3 1 2 2 4 2 2 1 1 1 2 1 1 1 0 0 -0 -0 1 1 1 1 1 1 1 1 0 0 0 0 -0 -0 -0 -1 -1 -1 -2 -2 -4 -4 -4 -4
2 1 1 1 1 1 1 1 1 1 1 1 1 1 0 0 0 0 -0 0 -0 -1 -0 -0 0 0 0 0 -0 -0 -1 -1 -1 -1 -1 -2 -2 -3 -3 -4 -4 -4 -4

GFSGL_700_temp_162.txt.gz
Temp
10 10 10 9 9 9 9 9 9 9 9 10 10 8 8 9 10 10 10 9 10 10 9 10 10 9 9 9 9 9 9 8 8 8 7 8 8 8 9 9 9 9 10
10 10 10 10 9 9 9 9 9 9 9 10 9 9 8 8 10 9 9 9 10 10 9 10 9 9 10 10 10 10 9 9 8 8 9 8 8 9 9 9 9 9 10
9 9 9 10 9 9 9 9 9 9 9 10 11 10 9 10 10 10 10 10 10 9 9 9 9 9 10 10 9 10 10 10 9 9 9 9 9 9 10 9 9 9 9
10 9 9 9 9 9 9 10 9 9 10 9 10 10 10 9 9 10 10 10 10 10 10 10 9 9 10 9 10 9 9 10 9 10 10 9 9 9 9 9 9 8 9
8 8 8 9 8 8 8 8 9 10 10 10 10 10 10 10 10 10 10 10 10 10 9 9 9 10 10 9 9 9 9 10 10 10 10 10 9 9 9 9 8 8 8
8 8 9 9 9 8 9 8 9 9 9 9 9 10 9 10 9 9 9 9 9 9 9 9 9 9 9 9 9 9 10 10 10 10 10 10 9 9 9 8 8 8 9
8 8 8 9 9 9 9 8 9 9 9 9 9 10 10 9 9 9 9 9 9 9 9 9 9 9 9 9 10 9 9 9 9 9 9 9 9 9 8 8 8 7 7
8 8 8 8 8 8 8 8 8 8 9 9 9 9 9 9 9 9 9 9 9 9 9 9 9 9 9 9 9 9 9 9 9 9 9 9 9 9 9 9 8 8 8
8 8 8 7 7 9 7 8 8 8 8 8 8 9 9 9 9 9 9 9 9 9 9 9 9 9 9 9 9 9 8 9 9 9 9 9 9 9 8 8 8 8 8
7 7 8 10 8 7 7 7 7 8 8 9 8 9 9 9 9 9 8 8 8 8 8 8 9 9 9 8 8 8 8 8 9 8 8 8 8 8 8 8 7 7 7
8 7 8 7 7 6 6 7 7 8 8 8 8 9 8 8 8 8 8 8 8 8 8 8 9 8 8 8 8 8 8 8 8 8 8 8 8 8 7 7 7 7 7
8 8 7 7 6 7 6 7 7 8 8 8 8 9 8 8 7 8 8 8 7 7 8 8 7 8 8 8 7 7 8 8 7 7 7 7 7 7 7 6 6 7 7
8 8 8 7 7 7 6 8 7 8 8 8 8 7 7 7 7 8 8 7 7 7 7 7 7 7 7 6 7 7 8 7 7 7 6 6 5 6 6 5 5 4 4
8 8 8 8 7 7 7 6 7 7 7 7 7 7 7 7 7 8 8 7 7 7 7 6 6 6 6 6 6 6 6 6 7 6 6 6 5 5 5 5 4 4 5
7 7 7 7 7 7 7 7 7 7 7 7 7 7 7 8 8 8 8 7 7 7 7 7 6 6 6 6 5 6 5 5 6 5 5 5 4 4 4 5 4 4 4
7 7 7 7 7 7 7 7 7 7 7 7 7 7 7 7 7 7 7 7 7 7 6 6 6 6 6 6 5 5 5 5 5 5 5 4 4 3 4 4 4 4 3
7 7 5 5 6 5 5 5 6 6 6 6 6 6 6 6 6 6 6 6 6 6 6 6 5 5 5 5 5 5 5 5 5 5 5 3 4 3 3 3 3 3 3
6 6 5 5 4 4 4 4 4 5 5 5 5 5 6 6 6 6 5 5 5 5 5 5 5 5 5 5 5 5 5 5 5 4 3 4 4 3 3 3 3 2 2
5 5 3 3 4 3 3 3 4 4 4 4 4 5 5 6 5 5 5 5 5 5 5 5 5 5 5 5 5 5 5 4 4 4 3 3 3 3 3 3 2 2 1
4 4 4 3 4 3 3 3 4 4 4 4 5 4 4 4 5 5 5 5 5 5 5 5 5 5 5 5 4 4 4 4 4 4 3 3 3 2 2 2 1 2 1
5 4 3 3 3 3 3 3 3 4 4 4 5 4 4 4 5 5 5 4 4 4 4 4 4 4 4 4 4 4 3 3 3 3 3 2 2 2 1 1 0 0 -1
5 4 3 3 3 4 2 2 3 2 2 4 4 4 4 4 5 5 4 4 4 4 4 4 4 4 3 3 3 3 3 3 3 2 2 2 1 1 1 0 -0 -0 -1
2 3 2 2 2 2 2 1 1 1 1 1 4 3 4 4 4 4 4 4 4 3 3 3 3 3 3 3 2 2 2 2 2 1 1 1 0 -0 -0 -1 -1 -1 -3
2 2 2 2 2 3 2 1 1 2 2 1 1 2 2 3 2 3 2 3 3 3 3 3 2 2 2 2 2 2 1 1 1 1 0 -0 -0 -1 -2 -2 -3 -3 -3
3 2 2 2 2 3 2 2 1 1 1 2 2 1 1 1 1 1 2 2 2 2 2 2 1 1 1 1 1 1 0 0 -0 -0 -0 -1 -1 -1 -2 -2 -4 -3 -4
5 2 2 2 2 2 3 2 2 2 2 1 1 2 2 1 1 1 1 0 1 0 -0 -0 1 1 1 1 -0 -0 -1 -1 -1 -2 -2 -2 -2 -2 -2 -3 -3 -3 -3

GFSGL_700_temp_165.txt.gz
Temp
9 9 9 10 10 9 9 9 9 9 9 9 9 9 10 10 10 10 10 9 10 10 10 10 10 9 8 9 9 9 9 9 9 8 9 8 8 8 8 9 8 9 9
9 9 9 9 10 10 10 10 9 9 10 10 9 9 9 9 10 10 10 9 10 10 9 10 10 10 9 8 9 9 9 9 9 9 9 8 8 9 9 9 9 8 8
8 10 9 10 10 10 10 10 9 8 10 10 9 9 9 9 9 10 9 9 10 10 9 9 9 9 9 9 9 9 9 9 9 9 9 8 8 8 9 9 9 9 9
9 9 10 10 9 9 10 9 9 9 9 9 9 9 10 9 9 10 9 9 10 10 10 10 10 9 9 9 9 9 9 9 9 9 10 9 9 9 9 9 8 9 9
9 10 9 10 9 9 9 9 9 9 9 9 9 9 9 9 9 9 9 9 9 9 9 9 9 9 9 9 9 9 9 9 9 9 9 9 9 9 9 9 9 9 9
9 9 9 9 10 8 8 8 9 9 9 10 10 9 10 9 9 9 9 9 9 9 9 9 9 9 9 9 9 9 9 9 10 10 9 9 9 9 9 9 9 9 9
9 8 9 8 9 9 8 7 7 8 8 9 9 9 9 9 9 9 9 9 10 9 9 9 9 9 9 9 9 9 9 9 9 9 9 9 9 9 9 9 8 8 8
9 8 8 8 9 9 8 7 7 7 7 8 8 8 9 9 9 9 9 9 9 9 9 9 9 9 9 9 9 9 9 9 9 9 9 9 9 9 9 8 8 8 8
8 8 8 8 8 8 8 6 6 7 8 8 8 8 8 9 9 9 9 9 9 9 9 9 9 9 9 9 9 9 9 9 9 9 9 9 9 9 8 8 8 8 7
9 8 7 8 8 7 7 7 6 8 8 8 8 8 8 9 8 8 8 8 8 8 7 8 9 9 8 9 9 9 9 9 8 8 8 9 8 8 8 8 8 7 7
8 8 8 8 9 8 6 6 6 7 8 8 8 8 8 8 8 8 9 9 9 8 8 8 8 8 8 8 8 8 8 8 8 8 8 8 8 8 8 8 7 7 6
8 8 8 7 7 7 6 6 6 7 7 7 8 8 8 8 9 9 9 8 8 8 8 7 7 7 7 7 7 7 7 7 7 7 7 7 7 7 6 6 6 5 6
8 8 8 7 7 7 7 7 7 7 7 7 8 8 8 8 8 7 7 7 7 7 7 7 7 6 7 6 7 6 6 6 6 6 6 6 6 6 6 6 5 5 4
8 8 8 8 7 7 6 7 8 8 8 8 8 7 7 7 7 7 8 7 7 7 6 6 6 6 7 7 7 7 6 6 6 6 6 5 5 5 5 4 5 4 4
8 8 7 8 8 8 7 6 6 6 7 7 7 7 7 7 7 8 8 8 8 7 7 7 7 7 6 7 6 6 6 5 5 5 5 5 5 5 4 4 4 4 4
8 8 7 7 7 7 7 7 6 6 6 6 6 6 7 7 7 7 7 7 7 7 7 7 6 6 6 6 6 5 5 5 5 5 5 5 4 4 3 3 4 4 3
7 7 7 7 5 5 5 6 6 6 6 6 6 6 6 6 6 6 6 6 6 6 6 6 6 6 6 5 5 5 5 5 5 5 5 5 3 2 3 3 3 3 3
7 7 7 7 6 4 4 4 4 5 5 5 5 5 5 6 6 6 6 6 5 5 5 5 6 5 5 5 5 5 5 5 5 5 5 4 4 4 4 3 3 3 3
6 6 5 4 2 3 4 3 4 4 4 4 4 5 5 5 5 5 5 5 5 5 5 5 5 5 5 5 5 5 5 5 5 5 4 4 4 3 3 3 2 2 2
5 5 5 4 4 4 4 3 3 4 3 3 4 4 4 5 5 5 5 5 5 5 5 5 5 5 5 4 5 5 5 4 4 4 4 3 3 3 2 2 2 2 1
5 5 5 4 4 4 3 3 4 3 4 4 4 4 4 4 5 5 5 5 5 5 5 5 5 5 5 5 4 4 4 4 4 3 3 3 3 2 2 2 1 1 1
4 4 4 4 3 3 3 3 4 4 5 5 5 5 5 5 5 5 5 5 5 5 4 4 4 4 4 4 4 4 4 3 3 3 2 2 1 1 1 0 0 -0 -0
5 4 3 4 5 4 4 4 2 2 3 3 3 3 3 4 4 4 5 4 4 4 4 3 4 4 4 3 3 3 3 3 2 2 1 1 1 1 0 0 -0 -1 -1
5 3 2 4 4 4 4 4 3 2 2 2 2 3 3 3 3 3 3 3 3 3 3 3 3 3 2 2 2 1 1 1 1 1 0 0 0 0 -0 -0 -1 -1 -1
5 4 2 3 5 4 4 4 3 2 2 1 2 2 2 2 2 2 3 3 3 2 2 2 2 2 2 1 1 0 0 0 0 -0 -0 -1 -1 -1 -1 -1 -2 -2 -3
6 5 4 2 3 3 3 2 2 2 2 1 1 1 1 1 1 1 1 1 1 1 1 1 1 1 1 1 0 -0 -1 -1 -1 -1 -1 -2 -2 -2 -2 -2 -2 -3 -3

GFSGL_700_temp_171.txt.gz
Temp
8 9 9 9 9 9 9 9 9 9 8 8 8 9 8 9 9 9 9 9 9 9 9 9 9 9 9 10 10 9 9 9 9 9 9 9 9 8 8 8 9 9 9
9 8 8 8 9 9 9 9 9 9 8 8 8 7 8 8 8 8 8 8 9 9 9 9 9 9 9 8 9 9 9 9 9 9 9 8 9 9 9 9 9 9 9
9 9 8 9 9 9 9 9 8 8 8 8 8 8 7 8 8 8 8 8 8 9 8 8 8 9 9 8 8 9 9 9 9 9 9 9 9 9 9 9 9 9 9
10 9 9 9 9 8 8 8 8 8 8 8 8 8 8 8 8 8 8 8 8 8 8 8 8 9 9 8 8 9 9 9 9 9 9 9 9 9 9 9 9 9 9
10 10 10 9 8 8 8 7 8 8 8 8 8 8 8 8 8 8 8 8 8 8 8 8 8 9 9 8 8 8 8 8 8 9 9 9 9 8 9 9 9 9 9
11 10 10 9 9 9 9 8 8 8 8 9 8 8 8 8 8 8 8 8 8 8 8 9 8 9 8 8 9 8 8 8 8 8 8 9 8 9 9 9 9 9 9
11 11 10 9 9 9 9 8 8 8 8 9 9 8 8 8 8 8 8 8 8 8 8 9 8 8 8 8 8 8 8 8 8 8 8 8 8 8 8 8 8 8 8
11 10 10 9 9 8 8 8 8 8 8 8 8 8 8 9 8 8 8 8 9 9 9 8 8 8 8 8 8 8 8 8 8 8 8 8 8 8 8 8 8 8 8
11 10 9 9 9 8 8 8 8 7 7 8 7 7 7 8 7 7 8 8 8 8 9 9 8 9 8 8 8 8 8 9 8 8 8 8 8 8 8 8 8 8 8
10 10 9 9 9 9 9 8 8 7 7 7 7 7 7 7 7 7 8 8 8 8 8 8 8 8 8 8 8 8 8 8 8 8 8 8 8 8 8 8 8 8 7
9 9 9 9 9 9 9 8 8 7 7 6 7 7 7 7 7 7 7 7 8 8 7 8 8 8 8 8 8 8 8 8 8 8 8 8 8 8 7 7 7 7 6
9 8 8 8 9 9 8 8 7 7 6 6 7 6 7 6 6 7 7 7 7 7 7 7 8 8 8 8 8 8 8 8 7 7 7 7 7 7 6 6 6 6 6
9 9 8 8 8 8 7 7 6 6 6 6 6 6 6 6 6 6 6 6 5 6 7 7 8 8 8 7 7 7 7 7 7 7 7 6 6 6 6 6 6 5 5
9 9 8 8 8 8 8 7 7 6 6 6 6 5 5 5 5 6 5 5 5 5 7 7 7 7 7 6 7 7 7 6 6 6 6 6 6 5 5 5 5 5 5
9 8 8 8 7 7 8 7 7 7 6 6 6 6 6 5 5 5 6 6 7 7 7 6 6 6 6 6 6 6 6 6 5 6 6 6 6 6 5 5 5 4 4
8 8 7 7 7 7 7 7 7 7 7 7 6 6 6 6 6 6 6 7 7 7 7 6 6 6 6 6 6 6 6 5 5 6 5 5 5 5 5 4 4 3 4
8 7 7 7 7 7 7 7 7 7 6 6 6 6 5 5 5 6 6 6 6 6 6 6 6 5 6 6 6 5 5 5 5 5 5 5 5 5 5 4 3 3 3
7 7 7 7 6 6 6 6 6 6 5 5 5 5 5 5 5 5 5 6 6 6 5 5 5 5 6 5 5 5 5 5 5 5 5 5 5 5 4 4 4 3 3
7 7 7 7 6 5 5 5 4 4 4 4 4 4 4 4 5 5 6 6 5 5 5 5 5 5 5 5 5 5 5 5 5 5 5 4 4 4 4 4 3 3 3
7 7 6 6 6 5 5 4 4 4 4 4 3 3 3 4 4 5 5 5 5 5 5 5 5 5 5 5 5 4 4 4 4 4 4 4 4 4 3 3 3 2 2
6 6 6 6 5 4 4 4 4 4 3 3 3 4 4 4 4 4 4 4 4 4 5 5 5 5 5 5 5 4 4 4 4 4 4 4 4 3 3 2 2 2 1
6 6 6 5 5 4 3 3 3 3 3 3 3 3 4 4 4 4 5 4 4 4 4 4 4 4 4 4 4 4 4 4 4 4 3 3 3 3 2 2 1 1 1
6 6 5 5 5 4 3 3 3 3 3 3 3 4 4 4 4 4 4 4 4 4 4 4 4 4 4 4 4 4 3 3 3 3 2 2 2 2 1 1 1 1 0
6 6 6 5 5 4 4 4 4 3 3 2 2 3 3 3 3 4 4 4 4 4 4 4 3 3 3 3 3 2 2 2 2 2 1 1 1 1 1 0 -0 -0 -1
6 6 5 5 5 5 5 5 4 4 4 3 3 3 2 2 3 2 2 2 2 2 2 2 2 2 2 2 2 2 2 2 1 1 1 1 1 0 -0 -1 -1 -1 -1
6 6 5 4 4 4 4 5 5 4 4 3 3 2 2 2 1 1 1 1 1 1 1 1 1 1 1 1 1 1 1 1 1 1 1 0 -0 -1 -1 -2 -2 -2 -2